Time,TemperatureF,DewpointF,PressureIn,WindDirection,WindDirectionDegrees,WindSpeedMPH,WindSpeedGustMPH,Humidity,HourlyPrecipIn,Conditions,Clouds,dailyrainin,SoftwareType,DateUTC
2013-01-06 00:05:00,33.3,5.1,28.50,SSW,209,3.0,10.0,30,0.00,CLR,,0.00,WeatherDisplay:10.37,2013-01-06 05:05:00,
2013-01-06 00:10:00,33.3,5.1,28.47,SSW,210,3.0,7.0,30,0.00,CLR,,0.00,WeatherDisplay:10.37,2013-01-06 05:10:00,
2013-01-06 00:15:00,33.3,5.1,28.47,SSW,200,1.0,8.0,30,0.00,CLR,,0.00,WeatherDisplay:10.37,2013-01-06 05:15:00,
2013-01-06 00:20:00,33.3,5.1,28.47,SSW,200,3.0,8.0,30,0.00,CLR,,0.00,WeatherDisplay:10.37,2013-01-06 05:20:00,
2013-01-06 00:25:00,33.3,5.1,28.47,SSW,210,3.0,4.0,30,0.00,CLR,,0.00,WeatherDisplay:10.37,2013-01-06 05:25:00,
2013-01-06 00:30:00,33.3,5.1,28.47,SSW,211,3.0,6.0,30,0.00,CLR,,0.00,WeatherDisplay:10.37,2013-01-06 05:30:00,
2013-01-06 00:35:00,33.3,5.1,28.47,SSW,212,3.0,8.0,30,0.00,CLR,,0.00,WeatherDisplay:10.37,2013-01-06 05:35:00,
2013-01-06 00:40:00,33.3,5.1,28.47,SSW,208,3.0,7.0,30,0.00,CLR,,0.00,WeatherDisplay:10.37,2013-01-06 05:40:00,
2013-01-06 00:45:00,33.3,5.1,28.47,SSW,208,3.0,6.0,30,0.00,CLR,,0.00,WeatherDisplay:10.37,2013-01-06 05:45:00,
2013-01-06 00:50:00,33.3,5.1,28.47,SW,216,5.0,8.0,30,0.00,CLR,,0.00,WeatherDisplay:10.37,2013-01-06 05:50:00,
2013-01-06 00:55:00,33.3,5.1,28.44,SW,220,5.0,7.0,30,0.00,CLR,,0.00,WeatherDisplay:10.37,2013-01-06 05:55:00,
2013-01-06 01:00:00,33.3,5.1,28.44,SW,219,5.0,8.0,30,0.00,CLR,,0.00,WeatherDisplay:10.37,2013-01-06 06:00:00,
2013-01-06 01:05:00,33.3,5.1,28.44,SSW,213,5.0,6.0,30,0.00,CLR,,0.00,WeatherDisplay:10.37,2013-01-06 06:05:00,
2013-01-06 01:10:00,33.3,3.6,28.44,SW,217,5.0,10.0,28,0.00,CLR,,0.00,WeatherDisplay:10.37,2013-01-06 06:10:00,
2013-01-06 01:15:00,33.4,3.8,28.44,SW,218,5.0,7.0,28,0.00,CLR,,0.00,WeatherDisplay:10.37,2013-01-06 06:15:00,
2013-01-06 01:20:00,33.4,3.8,28.44,SW,219,5.0,10.0,28,0.00,CLR,,0.00,WeatherDisplay:10.37,2013-01-06 06:20:00,
2013-01-06 01:25:00,33.4,3.8,28.44,SW,226,5.0,9.0,28,0.00,CLR,,0.00,WeatherDisplay:10.37,2013-01-06 06:25:00,
2013-01-06 01:30:00,33.4,3.8,28.44,SW,229,6.0,8.0,28,0.00,CLR,,0.00,WeatherDisplay:10.37,2013-01-06 06:30:00,
2013-01-06 01:35:00,33.4,3.8,28.44,SW,227,5.0,8.0,28,0.00,CLR,,0.00,WeatherDisplay:10.37,2013-01-06 06:35:00,
2013-01-06 01:40:00,33.4,3.8,28.44,SW,233,7.0,8.0,28,0.00,CLR,,0.00,WeatherDisplay:10.37,2013-01-06 06:40:00,
2013-01-06 01:45:00,33.6,3.9,28.44,WSW,238,6.0,10.0,28,0.00,CLR,,0.00,WeatherDisplay:10.37,2013-01-06 06:45:00,
2013-01-06 01:50:00,33.6,3.9,28.44,SW,232,6.0,13.0,28,0.00,CLR,,0.00,WeatherDisplay:10.37,2013-01-06 06:50:00,
2013-01-06 02:00:00,33.6,3.9,28.44,SW,225,6.0,11.0,28,0.00,CLR,,0.00,WeatherDisplay:10.37,2013-01-06 07:00:00,
2013-01-06 02:05:00,33.6,3.9,28.44,SW,215,6.0,13.0,28,0.00,CLR,,0.00,WeatherDisplay:10.37,2013-01-06 07:05:00,
2013-01-06 02:10:00,33.6,3.9,28.44,SW,220,6.0,9.0,28,0.00,CLR,,0.00,WeatherDisplay:10.37,2013-01-06 07:10:00,
2013-01-06 02:20:00,33.8,3.3,28.44,SW,222,6.0,11.0,27,0.00,CLR,,0.00,WeatherDisplay:10.37,2013-01-06 07:20:00,
2013-01-06 02:30:00,33.8,5.6,28.44,SW,217,6.0,10.0,30,0.00,CLR,,0.00,WeatherDisplay:10.37,2013-01-06 07:30:00,
2013-01-06 02:35:00,34.0,5.7,28.44,SW,215,6.0,10.0,30,0.00,CLR,,0.00,WeatherDisplay:10.37,2013-01-06 07:35:00,
2013-01-06 02:40:00,34.0,3.4,28.41,SW,223,3.0,9.0,27,0.00,CLR,,0.00,WeatherDisplay:10.37,2013-01-06 07:40:00,
2013-01-06 02:50:00,34.0,5.7,28.41,SW,221,6.0,8.0,30,0.00,CLR,,0.00,WeatherDisplay:10.37,2013-01-06 07:50:00,
2013-01-06 03:00:00,34.0,5.7,28.41,SW,219,5.0,8.0,30,0.00,CLR,,0.00,WeatherDisplay:10.37,2013-01-06 08:00:00,
2013-01-06 03:05:00,34.0,5.7,28.41,SW,222,5.0,8.0,30,0.00,CLR,,0.00,WeatherDisplay:10.37,2013-01-06 08:05:00,
2013-01-06 03:10:00,34.0,5.7,28.41,SW,219,5.0,8.0,30,0.00,CLR,,0.00,WeatherDisplay:10.37,2013-01-06 08:10:00,
2013-01-06 03:15:00,34.0,5.7,28.41,SW,216,6.0,8.0,30,0.00,CLR,,0.00,WeatherDisplay:10.37,2013-01-06 08:15:00,
2013-01-06 03:20:00,34.0,5.7,28.41,SW,224,5.0,8.0,30,0.00,CLR,,0.00,WeatherDisplay:10.37,2013-01-06 08:20:00,
2013-01-06 03:25:00,34.1,5.9,28.41,SW,229,6.0,9.0,30,0.00,CLR,,0.00,WeatherDisplay:10.37,2013-01-06 08:25:00,
2013-01-06 03:30:00,34.2,5.9,28.41,SW,227,3.0,9.0,30,0.00,CLR,,0.00,WeatherDisplay:10.37,2013-01-06 08:30:00,
2013-01-06 03:40:00,34.2,5.9,28.41,SSW,207,3.0,9.0,30,0.00,CLR,,0.00,WeatherDisplay:10.37,2013-01-06 08:40:00,
2013-01-06 03:45:00,34.2,5.9,28.41,SW,214,3.0,6.0,30,0.00,CLR,,0.00,WeatherDisplay:10.37,2013-01-06 08:45:00,
2013-01-06 03:50:00,34.0,5.7,28.41,SW,216,5.0,8.0,30,0.00,CLR,,0.00,WeatherDisplay:10.37,2013-01-06 08:50:00,
2013-01-06 03:55:00,34.0,5.7,28.41,SSW,213,5.0,6.0,30,0.00,CLR,,0.00,WeatherDisplay:10.37,2013-01-06 08:55:00,
2013-01-06 04:00:00,34.0,5.7,28.41,SW,215,5.0,11.0,30,0.00,CLR,,0.00,WeatherDisplay:10.37,2013-01-06 09:00:00,
2013-01-06 04:10:00,34.0,5.7,28.41,SW,224,5.0,6.0,30,0.00,CLR,,0.00,WeatherDisplay:10.37,2013-01-06 09:10:00,
2013-01-06 04:15:00,34.0,5.7,28.41,SW,217,5.0,6.0,30,0.00,CLR,,0.00,WeatherDisplay:10.37,2013-01-06 09:15:00,
2013-01-06 04:20:00,34.0,5.7,28.41,SW,218,3.0,6.0,30,0.00,CLR,,0.00,WeatherDisplay:10.37,2013-01-06 09:20:00,
2013-01-06 04:25:00,34.0,5.7,28.41,SW,222,3.0,6.0,30,0.00,CLR,,0.00,WeatherDisplay:10.37,2013-01-06 09:25:00,
2013-01-06 04:30:00,34.0,5.7,28.41,SW,222,6.0,8.0,30,0.00,CLR,,0.00,WeatherDisplay:10.37,2013-01-06 09:30:00,
2013-01-06 04:35:00,34.0,5.7,28.41,SW,220,3.0,8.0,30,0.00,CLR,,0.00,WeatherDisplay:10.37,2013-01-06 09:35:00,
2013-01-06 04:40:00,34.0,5.7,28.38,SW,220,3.0,6.0,30,0.00,CLR,,0.00,WeatherDisplay:10.37,2013-01-06 09:40:00,
2013-01-06 04:50:00,34.0,5.7,28.38,SW,217,3.0,8.0,30,0.00,CLR,,0.00,WeatherDisplay:10.37,2013-01-06 09:50:00,
2013-01-06 04:55:00,34.2,5.9,28.38,SSW,212,3.0,6.0,30,0.00,CLR,,0.00,WeatherDisplay:10.37,2013-01-06 09:55:00,
2013-01-06 05:00:00,34.2,5.9,28.38,SW,217,3.0,8.0,30,0.00,CLR,,0.00,WeatherDisplay:10.37,2013-01-06 10:00:00,
2013-01-06 05:05:00,34.2,5.9,28.38,SW,218,3.0,6.0,30,0.00,CLR,,0.00,WeatherDisplay:10.37,2013-01-06 10:05:00,
2013-01-06 05:10:00,34.2,5.9,28.38,SW,217,5.0,8.0,30,0.00,CLR,,0.00,WeatherDisplay:10.37,2013-01-06 10:10:00,
2013-01-06 05:15:00,34.2,5.9,28.38,SW,222,3.0,9.0,30,0.00,CLR,,0.00,WeatherDisplay:10.37,2013-01-06 10:15:00,
2013-01-06 05:20:00,34.3,6.1,28.38,SW,225,3.0,8.0,30,0.00,CLR,,0.00,WeatherDisplay:10.37,2013-01-06 10:20:00,
2013-01-06 05:25:00,34.3,6.1,28.38,SW,228,3.0,8.0,30,0.00,CLR,,0.00,WeatherDisplay:10.37,2013-01-06 10:25:00,
2013-01-06 05:30:00,34.3,6.1,28.38,SW,223,3.0,6.0,30,0.00,CLR,,0.00,WeatherDisplay:10.37,2013-01-06 10:30:00,
2013-01-06 05:35:00,34.3,6.1,28.38,SW,220,3.0,6.0,30,0.00,CLR,,0.00,WeatherDisplay:10.37,2013-01-06 10:35:00,
2013-01-06 05:40:00,34.3,6.1,28.38,SW,216,3.0,6.0,30,0.00,CLR,,0.00,WeatherDisplay:10.37,2013-01-06 10:40:00,
2013-01-06 05:45:00,34.3,6.1,28.38,SW,217,3.0,8.0,30,0.00,CLR,,0.00,WeatherDisplay:10.37,2013-01-06 10:45:00,
2013-01-06 05:50:00,34.3,6.1,28.38,SW,219,3.0,8.0,30,0.00,CLR,,0.00,WeatherDisplay:10.37,2013-01-06 10:50:00,
2013-01-06 05:55:00,34.3,6.1,28.38,SW,222,5.0,8.0,30,0.00,CLR,,0.00,WeatherDisplay:10.37,2013-01-06 10:55:00,
2013-01-06 06:00:00,34.3,6.1,28.38,SW,226,5.0,9.0,30,0.00,CLR,,0.00,WeatherDisplay:10.37,2013-01-06 11:00:00,
2013-01-06 06:10:00,34.5,6.2,28.38,SW,226,5.0,6.0,30,0.00,CLR,,0.00,WeatherDisplay:10.37,2013-01-06 11:10:00,
2013-01-06 06:15:00,34.5,6.2,28.38,SW,231,7.0,12.0,30,0.00,CLR,,0.00,WeatherDisplay:10.37,2013-01-06 11:15:00,
2013-01-06 06:20:00,34.5,6.2,28.38,SW,228,5.0,8.0,30,0.00,CLR,,0.00,WeatherDisplay:10.37,2013-01-06 11:20:00,
2013-01-06 06:25:00,34.5,6.2,28.38,SW,227,5.0,7.0,30,0.00,CLR,,0.00,WeatherDisplay:10.37,2013-01-06 11:25:00,
2013-01-06 06:30:00,34.7,6.4,28.38,SW,232,7.0,11.0,30,0.00,CLR,,0.00,WeatherDisplay:10.37,2013-01-06 11:30:00,
2013-01-06 06:35:00,34.7,6.4,28.38,SW,233,6.0,12.0,30,0.00,CLR,,0.00,WeatherDisplay:10.37,2013-01-06 11:35:00,
2013-01-06 06:40:00,34.7,6.4,28.38,SW,231,5.0,8.0,30,0.00,CLR,,0.00,WeatherDisplay:10.37,2013-01-06 11:40:00,
2013-01-06 06:45:00,34.7,6.4,28.38,SW,234,6.0,8.0,30,0.00,CLR,,0.00,WeatherDisplay:10.37,2013-01-06 11:45:00,
2013-01-06 06:50:00,34.7,6.4,28.38,WSW,237,5.0,9.0,30,0.00,CLR,,0.00,WeatherDisplay:10.37,2013-01-06 11:50:00,
2013-01-06 06:55:00,34.7,6.4,28.38,WSW,242,7.0,10.0,30,0.00,CLR,,0.00,WeatherDisplay:10.37,2013-01-06 11:55:00,
2013-01-06 07:00:00,34.9,6.5,28.38,SW,236,6.0,10.0,30,0.00,CLR,,0.00,WeatherDisplay:10.37,2013-01-06 12:00:00,
2013-01-06 07:05:00,34.9,6.5,28.38,SW,233,6.0,8.0,30,0.00,CLR,,0.00,WeatherDisplay:10.37,2013-01-06 12:05:00,
2013-01-06 07:10:00,34.9,6.5,28.35,SW,229,7.0,12.0,30,0.00,CLR,,0.00,WeatherDisplay:10.37,2013-01-06 12:10:00,
2013-01-06 07:15:00,34.7,6.4,28.35,SW,232,6.0,9.0,30,0.00,CLR,,0.00,WeatherDisplay:10.37,2013-01-06 12:15:00,
2013-01-06 07:20:00,34.7,6.4,28.35,SW,228,5.0,6.0,30,0.00,CLR,,0.00,WeatherDisplay:10.37,2013-01-06 12:20:00,
2013-01-06 07:25:00,34.5,6.2,28.38,SW,235,5.0,11.0,30,0.00,CLR,,0.00,WeatherDisplay:10.37,2013-01-06 12:25:00,
2013-01-06 07:30:00,34.7,7.1,28.38,WSW,240,6.0,8.0,31,0.00,CLR,,0.00,WeatherDisplay:10.37,2013-01-06 12:30:00,
2013-01-06 07:35:00,34.7,7.1,28.38,WSW,237,7.0,8.0,31,0.00,CLR,,0.00,WeatherDisplay:10.37,2013-01-06 12:35:00,
2013-01-06 07:40:00,34.8,7.2,28.38,SW,234,7.0,9.0,31,0.00,CLR,,0.00,WeatherDisplay:10.37,2013-01-06 12:40:00,
2013-01-06 07:45:00,34.7,7.1,28.38,WSW,238,7.0,10.0,31,0.00,CLR,,0.00,WeatherDisplay:10.37,2013-01-06 12:45:00,
2013-01-06 07:50:00,34.9,7.3,28.38,WSW,237,6.0,8.0,31,0.00,CLR,,0.00,WeatherDisplay:10.37,2013-01-06 12:50:00,
2013-01-06 07:55:00,34.9,7.3,28.35,WSW,243,8.0,13.0,31,0.00,CLR,,0.00,WeatherDisplay:10.37,2013-01-06 12:55:00,
2013-01-06 08:00:00,34.9,7.3,28.35,WSW,240,7.0,13.0,31,0.00,CLR,,0.00,WeatherDisplay:10.37,2013-01-06 13:00:00,
2013-01-06 08:05:00,34.9,6.5,28.35,WSW,238,6.0,9.0,30,0.00,CLR,,0.00,WeatherDisplay:10.37,2013-01-06 13:05:00,
2013-01-06 08:10:00,34.7,6.4,28.38,WSW,237,6.0,10.0,30,0.00,CLR,,0.00,WeatherDisplay:10.37,2013-01-06 13:10:00,
2013-01-06 08:15:00,34.9,7.3,28.38,WSW,237,7.0,9.0,31,0.00,CLR,,0.00,WeatherDisplay:10.37,2013-01-06 13:15:00,
2013-01-06 08:20:00,34.9,7.3,28.38,WSW,242,6.0,14.0,31,0.00,CLR,,0.00,WeatherDisplay:10.37,2013-01-06 13:20:00,
2013-01-06 08:25:00,35.1,6.7,28.35,WSW,240,8.0,14.0,30,0.00,CLR,,0.00,WeatherDisplay:10.37,2013-01-06 13:25:00,
2013-01-06 08:30:00,35.2,6.8,28.35,WSW,245,7.0,11.0,30,0.00,CLR,,0.00,WeatherDisplay:10.37,2013-01-06 13:30:00,
2013-01-06 08:35:00,35.4,7.0,28.35,WSW,242,9.0,13.0,30,0.00,CLR,,0.00,WeatherDisplay:10.37,2013-01-06 13:35:00,
2013-01-06 08:40:00,35.4,7.0,28.35,SW,236,6.0,11.0,30,0.00,CLR,,0.00,WeatherDisplay:10.37,2013-01-06 13:40:00,
2013-01-06 08:45:00,35.4,7.0,28.35,SW,233,7.0,10.0,30,0.00,CLR,,0.00,WeatherDisplay:10.37,2013-01-06 13:45:00,
2013-01-06 08:50:00,35.4,7.0,28.35,SW,230,8.0,11.0,30,0.00,CLR,,0.00,WeatherDisplay:10.37,2013-01-06 13:50:00,
2013-01-06 08:55:00,35.6,6.4,28.35,SW,236,8.0,14.0,29,0.00,CLR,,0.00,WeatherDisplay:10.37,2013-01-06 13:55:00,
2013-01-06 09:00:00,35.6,6.4,28.35,WSW,242,8.0,14.0,29,0.00,CLR,,0.00,WeatherDisplay:10.37,2013-01-06 14:00:00,
2013-01-06 09:05:00,35.6,6.4,28.35,WSW,238,8.0,12.0,29,0.00,CLR,,0.00,WeatherDisplay:10.37,2013-01-06 14:05:00,
2013-01-06 09:10:00,35.6,6.4,28.35,WSW,241,7.0,12.0,29,0.00,CLR,,0.00,WeatherDisplay:10.37,2013-01-06 14:10:00,
2013-01-06 09:15:00,35.6,6.4,28.35,WSW,243,8.0,12.0,29,0.00,CLR,,0.00,WeatherDisplay:10.37,2013-01-06 14:15:00,
2013-01-06 09:20:00,35.7,6.5,28.35,WSW,240,8.0,13.0,29,0.00,CLR,,0.00,WeatherDisplay:10.37,2013-01-06 14:20:00,
2013-01-06 09:25:00,35.8,6.6,28.35,WSW,240,8.0,12.0,29,0.00,CLR,,0.00,WeatherDisplay:10.37,2013-01-06 14:25:00,
2013-01-06 09:30:00,35.8,6.6,28.35,WSW,237,6.0,10.0,29,0.00,CLR,,0.00,WeatherDisplay:10.37,2013-01-06 14:30:00,
2013-01-06 09:40:00,35.8,6.6,28.35,WSW,244,10.0,14.0,29,0.00,CLR,,0.00,WeatherDisplay:10.37,2013-01-06 14:40:00,
2013-01-06 09:45:00,35.8,6.6,28.35,WSW,249,8.0,10.0,29,0.00,CLR,,0.00,WeatherDisplay:10.37,2013-01-06 14:45:00,
2013-01-06 09:50:00,35.8,6.6,28.35,WSW,250,10.0,15.0,29,0.00,CLR,,0.00,WeatherDisplay:10.37,2013-01-06 14:50:00,
2013-01-06 09:55:00,35.8,6.6,28.35,WSW,248,8.0,12.0,29,0.00,CLR,,0.00,WeatherDisplay:10.37,2013-01-06 14:55:00,
2013-01-06 10:00:00,35.8,6.6,28.35,WSW,245,8.0,13.0,29,0.00,CLR,,0.00,WeatherDisplay:10.37,2013-01-06 15:00:00,
2013-01-06 10:05:00,35.8,6.6,28.35,WSW,245,7.0,13.0,29,0.00,CLR,,0.00,WeatherDisplay:10.37,2013-01-06 15:05:00,
2013-01-06 10:10:00,35.7,6.5,28.38,WSW,251,7.0,9.0,29,0.00,CLR,,0.00,WeatherDisplay:10.37,2013-01-06 15:10:00,
2013-01-06 10:15:00,35.7,6.5,28.38,WSW,247,7.0,9.0,29,0.00,CLR,,0.00,WeatherDisplay:10.37,2013-01-06 15:15:00,
2013-01-06 10:20:00,35.8,6.6,28.38,WSW,242,7.0,11.0,29,0.00,CLR,,0.00,WeatherDisplay:10.37,2013-01-06 15:20:00,
2013-01-06 10:25:00,35.8,6.6,28.38,WSW,241,7.0,9.0,29,0.00,CLR,,0.00,WeatherDisplay:10.37,2013-01-06 15:25:00,
2013-01-06 10:30:00,35.8,6.6,28.38,WSW,239,8.0,12.0,29,0.00,CLR,,0.00,WeatherDisplay:10.37,2013-01-06 15:30:00,
2013-01-06 10:40:00,35.6,6.4,28.38,WSW,248,8.0,10.0,29,0.00,CLR,,0.00,WeatherDisplay:10.37,2013-01-06 15:40:00,
2013-01-06 10:45:00,35.6,4.8,28.38,WSW,245,10.0,13.0,27,0.00,CLR,,0.00,WeatherDisplay:10.37,2013-01-06 15:45:00,
2013-01-06 10:50:00,35.6,6.4,28.38,WSW,243,7.0,15.0,29,0.00,CLR,,0.00,WeatherDisplay:10.37,2013-01-06 15:50:00,
2013-01-06 10:55:00,35.1,6.7,28.38,West,264,8.0,13.0,30,0.00,CLR,,0.00,WeatherDisplay:10.37,2013-01-06 15:55:00,
2013-01-06 11:00:00,33.3,5.1,28.38,WNW,289,8.0,15.0,30,0.00,CLR,,0.00,WeatherDisplay:10.37,2013-01-06 16:00:00,
2013-01-06 11:05:00,32.8,5.4,28.38,NW,304,9.0,13.0,31,0.00,CLR,,0.00,WeatherDisplay:10.37,2013-01-06 16:05:00,
2013-01-06 11:10:00,32.4,5.7,28.38,NW,313,10.0,13.0,32,0.00,CLR,,0.00,WeatherDisplay:10.37,2013-01-06 16:10:00,
2013-01-06 11:15:00,32.2,6.9,28.38,NW,304,8.0,13.0,34,0.00,CLR,,0.00,WeatherDisplay:10.37,2013-01-06 16:15:00,
2013-01-06 11:20:00,31.8,5.9,28.38,WNW,298,8.0,13.0,33,0.00,CLR,,0.00,WeatherDisplay:10.37,2013-01-06 16:20:00,
2013-01-06 11:25:00,31.2,6.0,28.38,WNW,297,8.0,13.0,34,0.00,CLR,,0.00,WeatherDisplay:10.37,2013-01-06 16:25:00,
2013-01-06 11:30:00,31.1,6.0,28.38,WNW,302,7.0,12.0,34,0.00,CLR,,0.00,WeatherDisplay:10.37,2013-01-06 16:30:00,
2013-01-06 11:35:00,30.9,5.1,28.38,WNW,286,8.0,13.0,33,0.00,CLR,,0.00,WeatherDisplay:10.37,2013-01-06 16:35:00,
2013-01-06 11:40:00,31.1,5.3,28.38,West,281,7.0,11.0,33,0.00,CLR,,0.00,WeatherDisplay:10.37,2013-01-06 16:40:00,
2013-01-06 11:50:00,30.9,-0.8,28.38,WNW,288,9.0,13.0,25,0.00,CLR,,0.00,WeatherDisplay:10.37,2013-01-06 16:50:00,
2013-01-06 11:55:00,31.1,-2.5,28.38,WNW,283,8.0,13.0,23,0.00,CLR,,0.00,WeatherDisplay:10.37,2013-01-06 16:55:00,
2013-01-06 12:00:00,31.0,-2.5,28.38,West,272,8.0,14.0,23,0.00,CLR,,0.00,WeatherDisplay:10.37,2013-01-06 17:00:00,
2013-01-06 12:05:00,31.0,-2.5,28.38,West,280,8.0,13.0,23,0.00,CLR,,0.00,WeatherDisplay:10.37,2013-01-06 17:05:00,
2013-01-06 12:10:00,31.0,-2.5,28.38,West,273,8.0,13.0,23,0.00,CLR,,0.00,WeatherDisplay:10.37,2013-01-06 17:10:00,
2013-01-06 12:15:00,31.1,-2.5,28.38,West,275,8.0,11.0,23,0.00,CLR,,0.00,WeatherDisplay:10.37,2013-01-06 17:15:00,
2013-01-06 12:20:00,31.1,-2.5,28.38,West,272,6.0,13.0,23,0.00,CLR,,0.00,WeatherDisplay:10.37,2013-01-06 17:20:00,
2013-01-06 12:25:00,31.1,-2.5,28.41,West,267,7.0,13.0,23,0.00,CLR,,0.00,WeatherDisplay:10.37,2013-01-06 17:25:00,
2013-01-06 12:35:00,30.2,-3.2,28.41,West,281,7.0,15.0,23,0.00,CLR,,0.00,WeatherDisplay:10.37,2013-01-06 17:35:00,
2013-01-06 12:40:00,30.2,-3.2,28.41,WNW,289,7.0,11.0,23,0.00,CLR,,0.00,WeatherDisplay:10.37,2013-01-06 17:40:00,
2013-01-06 12:45:00,29.6,-3.8,28.41,WNW,293,8.0,13.0,23,0.00,CLR,,0.00,WeatherDisplay:10.37,2013-01-06 17:45:00,
2013-01-06 12:50:00,28.2,-4.9,28.41,NW,308,12.0,16.0,23,0.00,CLR,,0.00,WeatherDisplay:10.37,2013-01-06 17:50:00,
2013-01-06 12:55:00,28.0,-5.1,28.41,NW,317,9.0,13.0,23,0.00,CLR,,0.00,WeatherDisplay:10.37,2013-01-06 17:55:00,
2013-01-06 13:00:00,28.5,-4.7,28.41,NW,307,6.0,10.0,23,0.00,CLR,,0.00,WeatherDisplay:10.37,2013-01-06 18:00:00,
2013-01-06 13:05:00,28.2,-4.9,28.41,WNW,293,9.0,13.0,23,0.00,CLR,,0.00,WeatherDisplay:10.37,2013-01-06 18:05:00,
2013-01-06 13:10:00,28.5,-4.6,28.41,WNW,295,7.0,13.0,23,0.00,CLR,,0.00,WeatherDisplay:10.37,2013-01-06 18:10:00,
2013-01-06 13:15:00,27.9,-5.2,28.41,WNW,288,9.0,15.0,23,0.00,CLR,,0.00,WeatherDisplay:10.37,2013-01-06 18:15:00,
2013-01-06 13:20:00,27.3,-5.7,28.41,WNW,294,8.0,15.0,23,0.00,CLR,,0.00,WeatherDisplay:10.37,2013-01-06 18:20:00,
2013-01-06 13:25:00,27.1,-5.8,28.41,NW,304,8.0,13.0,23,0.00,CLR,,0.00,WeatherDisplay:10.37,2013-01-06 18:25:00,
2013-01-06 13:30:00,27.3,-5.7,28.41,WNW,294,8.0,10.0,23,0.00,CLR,,0.00,WeatherDisplay:10.37,2013-01-06 18:30:00,
2013-01-06 13:35:00,27.2,-5.8,28.41,WNW,293,8.0,13.0,23,0.00,CLR,,0.00,WeatherDisplay:10.37,2013-01-06 18:35:00,
2013-01-06 13:40:00,27.0,-6.0,28.41,WNW,295,7.0,11.0,23,0.00,CLR,,0.00,WeatherDisplay:10.37,2013-01-06 18:40:00,
2013-01-06 13:45:00,26.4,-5.6,28.41,WNW,296,8.0,15.0,24,0.00,CLR,,0.00,WeatherDisplay:10.37,2013-01-06 18:45:00,
2013-01-06 13:50:00,26.1,-5.8,28.41,WNW,288,9.0,15.0,24,0.00,CLR,,0.00,WeatherDisplay:10.37,2013-01-06 18:50:00,
2013-01-06 13:55:00,26.2,-4.1,28.41,WNW,296,7.0,13.0,26,0.00,CLR,,0.00,WeatherDisplay:10.37,2013-01-06 18:55:00,
2013-01-06 14:00:00,26.1,-5.9,28.41,WNW,302,8.0,13.0,24,0.00,CLR,,0.00,WeatherDisplay:10.37,2013-01-06 19:00:00,
2013-01-06 14:05:00,25.3,-4.8,28.41,NW,304,12.0,17.0,26,0.00,CLR,,0.00,WeatherDisplay:10.37,2013-01-06 19:05:00,
2013-01-06 14:10:00,25.2,-5.0,28.44,WNW,298,8.0,13.0,26,0.00,CLR,,0.00,WeatherDisplay:10.37,2013-01-06 19:10:00,
2013-01-06 14:15:00,25.2,-5.8,28.44,WNW,288,7.0,14.0,25,0.00,CLR,,0.00,WeatherDisplay:10.37,2013-01-06 19:15:00,
2013-01-06 14:25:00,25.2,-6.6,28.44,WNW,297,8.0,12.0,24,0.00,CLR,,0.00,WeatherDisplay:10.37,2013-01-06 19:25:00,
2013-01-06 14:30:00,25.3,-6.5,28.44,NW,305,5.0,13.0,24,0.00,CLR,,0.00,WeatherDisplay:10.37,2013-01-06 19:30:00,
2013-01-06 14:35:00,25.1,-6.7,28.44,WNW,299,8.0,10.0,24,0.00,CLR,,0.00,WeatherDisplay:10.37,2013-01-06 19:35:00,
2013-01-06 14:40:00,25.2,-6.6,28.47,WNW,292,6.0,10.0,24,0.00,CLR,,0.00,WeatherDisplay:10.37,2013-01-06 19:40:00,
2013-01-06 14:45:00,25.5,-6.4,28.47,WNW,300,5.0,13.0,24,0.00,CLR,,0.00,WeatherDisplay:10.37,2013-01-06 19:45:00,
2013-01-06 14:50:00,25.6,-6.3,28.47,WNW,296,3.0,6.0,24,0.00,CLR,,0.00,WeatherDisplay:10.37,2013-01-06 19:50:00,
2013-01-06 14:55:00,25.5,-6.4,28.47,WNW,293,6.0,11.0,24,0.00,CLR,,0.00,WeatherDisplay:10.37,2013-01-06 19:55:00,
2013-01-06 15:10:00,25.2,-6.6,28.47,West,276,5.0,9.0,24,0.00,CLR,,0.00,WeatherDisplay:10.37,2013-01-06 20:10:00,
2013-01-06 15:15:00,25.3,-6.5,28.47,WNW,286,7.0,10.0,24,0.00,CLR,,0.00,WeatherDisplay:10.37,2013-01-06 20:15:00,
2013-01-06 15:20:00,25.3,-5.6,28.47,WNW,284,5.0,9.0,25,0.00,CLR,,0.00,WeatherDisplay:10.37,2013-01-06 20:20:00,
2013-01-06 15:25:00,25.3,-4.8,28.47,WNW,291,5.0,9.0,26,0.00,CLR,,0.00,WeatherDisplay:10.37,2013-01-06 20:25:00,
2013-01-06 15:35:00,25.3,-4.8,28.47,WNW,287,3.0,10.0,26,0.00,CLR,,0.00,WeatherDisplay:10.37,2013-01-06 20:35:00,
2013-01-06 15:40:00,25.3,-4.8,28.50,WNW,287,6.0,9.0,26,0.00,CLR,,0.00,WeatherDisplay:10.37,2013-01-06 20:40:00,
2013-01-06 15:45:00,25.2,-5.0,28.50,WNW,288,5.0,11.0,26,0.00,CLR,,0.00,WeatherDisplay:10.37,2013-01-06 20:45:00,
2013-01-06 15:50:00,25.2,-5.8,28.50,NW,305,8.0,11.0,25,0.00,CLR,,0.00,WeatherDisplay:10.37,2013-01-06 20:50:00,
2013-01-06 16:00:00,25.3,-4.8,28.50,WNW,292,3.0,6.0,26,0.00,CLR,,0.00,WeatherDisplay:10.37,2013-01-06 21:00:00,
2013-01-06 16:05:00,25.3,-4.8,28.50,West,279,3.0,6.0,26,0.00,CLR,,0.00,WeatherDisplay:10.37,2013-01-06 21:05:00,
2013-01-06 16:10:00,25.3,-4.8,28.50,West,280,5.0,8.0,26,0.00,CLR,,0.00,WeatherDisplay:10.37,2013-01-06 21:10:00,
2013-01-06 16:15:00,25.2,-5.0,28.50,WNW,292,6.0,10.0,26,0.00,CLR,,0.00,WeatherDisplay:10.37,2013-01-06 21:15:00,
2013-01-06 16:20:00,25.3,-4.8,28.50,WNW,289,5.0,8.0,26,0.00,CLR,,0.00,WeatherDisplay:10.37,2013-01-06 21:20:00,
2013-01-06 16:25:00,25.3,-4.9,28.53,WNW,287,3.0,8.0,26,0.00,CLR,,0.00,WeatherDisplay:10.37,2013-01-06 21:25:00,
2013-01-06 16:30:00,25.2,-5.0,28.53,WNW,300,6.0,9.0,26,0.00,CLR,,0.00,WeatherDisplay:10.37,2013-01-06 21:30:00,
2013-01-06 16:35:00,25.2,-5.0,28.53,WNW,299,5.0,8.0,26,0.00,CLR,,0.00,WeatherDisplay:10.37,2013-01-06 21:35:00,
2013-01-06 16:40:00,25.3,-4.8,28.53,WNW,283,5.0,8.0,26,0.00,CLR,,0.00,WeatherDisplay:10.37,2013-01-06 21:40:00,
2013-01-06 16:45:00,25.3,-4.8,28.53,West,277,6.0,8.0,26,0.00,CLR,,0.00,WeatherDisplay:10.37,2013-01-06 21:45:00,
2013-01-06 16:50:00,25.2,-5.0,28.53,West,269,5.0,8.0,26,0.00,CLR,,0.00,WeatherDisplay:10.37,2013-01-06 21:50:00,
2013-01-06 17:00:00,25.2,-5.0,28.56,West,272,5.0,8.0,26,0.00,CLR,,0.00,WeatherDisplay:10.37,2013-01-06 22:00:00,
2013-01-06 17:05:00,25.2,-5.0,28.56,West,270,6.0,8.0,26,0.00,CLR,,0.00,WeatherDisplay:10.37,2013-01-06 22:05:00,
2013-01-06 17:10:00,25.2,-5.0,28.53,West,269,6.0,8.0,26,0.00,CLR,,0.00,WeatherDisplay:10.37,2013-01-06 22:10:00,
2013-01-06 17:15:00,25.2,-4.9,28.53,West,268,5.0,6.0,26,0.00,CLR,,0.00,WeatherDisplay:10.37,2013-01-06 22:15:00,
2013-01-06 17:20:00,25.3,-2.5,28.53,West,274,5.0,8.0,29,0.00,CLR,,0.00,WeatherDisplay:10.37,2013-01-06 22:20:00,
2013-01-06 17:25:00,25.3,-2.5,28.56,West,279,5.0,8.0,29,0.00,CLR,,0.00,WeatherDisplay:10.37,2013-01-06 22:25:00,
2013-01-06 17:30:00,25.3,-2.5,28.56,WNW,282,5.0,8.0,29,0.00,CLR,,0.00,WeatherDisplay:10.37,2013-01-06 22:30:00,
2013-01-06 17:35:00,25.5,-2.4,28.56,West,278,6.0,8.0,29,0.00,CLR,,0.00,WeatherDisplay:10.37,2013-01-06 22:35:00,
2013-01-06 17:40:00,25.5,-2.4,28.56,West,270,5.0,8.0,29,0.00,CLR,,0.00,WeatherDisplay:10.37,2013-01-06 22:40:00,
2013-01-06 17:45:00,25.5,-2.4,28.56,West,262,3.0,8.0,29,0.00,CLR,,0.00,WeatherDisplay:10.37,2013-01-06 22:45:00,
2013-01-06 17:55:00,25.7,-2.2,28.53,West,263,6.0,10.0,29,0.00,CLR,,0.00,WeatherDisplay:10.37,2013-01-06 22:55:00,
2013-01-06 18:00:00,25.7,-0.8,28.53,West,265,5.0,11.0,31,0.00,CLR,,0.00,WeatherDisplay:10.37,2013-01-06 23:00:00,
2013-01-06 18:05:00,25.8,-0.1,28.53,West,269,3.0,10.0,32,0.00,CLR,,0.00,WeatherDisplay:10.37,2013-01-06 23:05:00,
2013-01-06 18:10:00,25.9,0.0,28.56,West,268,6.0,8.0,32,0.00,CLR,,0.00,WeatherDisplay:10.37,2013-01-06 23:10:00,
2013-01-06 18:15:00,25.9,0.0,28.56,West,271,6.0,10.0,32,0.00,CLR,,0.00,WeatherDisplay:10.37,2013-01-06 23:15:00,
2013-01-06 18:20:00,26.1,0.2,28.56,West,261,5.0,10.0,32,0.00,CLR,,0.00,WeatherDisplay:10.37,2013-01-06 23:20:00,
2013-01-06 18:25:00,26.1,0.2,28.56,West,261,3.0,6.0,32,0.00,CLR,,0.00,WeatherDisplay:10.37,2013-01-06 23:25:00,
2013-01-06 18:30:00,26.1,0.2,28.56,West,278,6.0,8.0,32,0.00,CLR,,0.00,WeatherDisplay:10.37,2013-01-06 23:30:00,
2013-01-06 18:35:00,26.1,0.2,28.56,West,278,5.0,8.0,32,0.00,CLR,,0.00,WeatherDisplay:10.37,2013-01-06 23:35:00,
2013-01-06 18:40:00,26.1,0.2,28.58,West,274,7.0,10.0,32,0.00,CLR,,0.00,WeatherDisplay:10.37,2013-01-06 23:40:00,
2013-01-06 18:50:00,26.2,0.3,28.58,West,280,6.0,10.0,32,0.00,CLR,,0.00,WeatherDisplay:10.37,2013-01-06 23:50:00,
2013-01-06 18:55:00,26.4,0.5,28.58,West,271,5.0,11.0,32,0.00,CLR,,0.00,WeatherDisplay:10.37,2013-01-06 23:55:00,
2013-01-06 19:00:00,26.4,0.5,28.58,West,269,5.0,11.0,32,0.00,CLR,,0.00,WeatherDisplay:10.37,2013-01-07 00:00:00,
2013-01-06 19:05:00,26.5,0.6,28.58,West,262,5.0,8.0,32,0.00,CLR,,0.00,WeatherDisplay:10.37,2013-01-07 00:05:00,
2013-01-06 19:10:00,26.6,0.7,28.61,West,260,6.0,8.0,32,0.00,CLR,,0.00,WeatherDisplay:10.37,2013-01-07 00:10:00,
2013-01-06 19:15:00,26.6,0.7,28.61,West,264,6.0,9.0,32,0.00,CLR,,0.00,WeatherDisplay:10.37,2013-01-07 00:15:00,
2013-01-06 19:20:00,26.8,0.1,28.61,West,264,6.0,8.0,31,0.00,CLR,,0.00,WeatherDisplay:10.37,2013-01-07 00:20:00,
2013-01-06 19:25:00,26.8,0.1,28.61,West,271,6.0,12.0,31,0.00,CLR,,0.00,WeatherDisplay:10.37,2013-01-07 00:25:00,
2013-01-06 19:30:00,26.8,0.1,28.61,West,269,5.0,9.0,31,0.00,CLR,,0.00,WeatherDisplay:10.37,2013-01-07 00:30:00,
2013-01-06 19:40:00,27.0,0.3,28.61,West,263,6.0,10.0,31,0.00,CLR,,0.00,WeatherDisplay:10.37,2013-01-07 00:40:00,
2013-01-06 19:45:00,27.0,0.3,28.61,WSW,254,6.0,10.0,31,0.00,CLR,,0.00,WeatherDisplay:10.37,2013-01-07 00:45:00,
2013-01-06 19:50:00,27.0,0.3,28.61,WSW,258,6.0,9.0,31,0.00,CLR,,0.00,WeatherDisplay:10.37,2013-01-07 00:50:00,
2013-01-06 19:55:00,27.1,0.4,28.61,West,261,5.0,8.0,31,0.00,CLR,,0.00,WeatherDisplay:10.37,2013-01-07 00:55:00,
2013-01-06 20:05:00,27.2,0.5,28.61,West,259,5.0,6.0,31,0.00,CLR,,0.00,WeatherDisplay:10.37,2013-01-07 01:05:00,
2013-01-06 20:10:00,27.3,0.6,28.61,West,262,3.0,7.0,31,0.00,CLR,,0.00,WeatherDisplay:10.37,2013-01-07 01:10:00,
2013-01-06 20:15:00,27.4,0.7,28.61,West,271,6.0,6.0,31,0.00,CLR,,0.00,WeatherDisplay:10.37,2013-01-07 01:15:00,
2013-01-06 20:20:00,27.5,0.8,28.61,West,268,6.0,12.0,31,0.00,CLR,,0.00,WeatherDisplay:10.37,2013-01-07 01:20:00,
2013-01-06 20:25:00,27.5,0.8,28.61,West,260,6.0,10.0,31,0.00,CLR,,0.00,WeatherDisplay:10.37,2013-01-07 01:25:00,
2013-01-06 20:35:00,27.5,0.8,28.61,West,270,5.0,9.0,31,0.00,CLR,,0.00,WeatherDisplay:10.37,2013-01-07 01:35:00,
2013-01-06 20:40:00,27.5,0.8,28.61,West,272,6.0,9.0,31,0.00,CLR,,0.00,WeatherDisplay:10.37,2013-01-07 01:40:00,
2013-01-06 20:45:00,27.6,0.9,28.61,West,272,5.0,9.0,31,0.00,CLR,,0.00,WeatherDisplay:10.37,2013-01-07 01:45:00,
2013-01-06 20:50:00,27.7,0.9,28.61,West,264,3.0,10.0,31,0.00,CLR,,0.00,WeatherDisplay:10.37,2013-01-07 01:50:00,
2013-01-06 20:55:00,27.5,0.8,28.64,West,265,6.0,8.0,31,0.00,CLR,,0.00,WeatherDisplay:10.37,2013-01-07 01:55:00,
2013-01-06 21:00:00,27.5,0.8,28.64,West,266,6.0,10.0,31,0.00,CLR,,0.00,WeatherDisplay:10.37,2013-01-07 02:00:00,
2013-01-06 21:05:00,27.7,0.9,28.64,West,268,5.0,8.0,31,0.00,CLR,,0.00,WeatherDisplay:10.37,2013-01-07 02:05:00,
2013-01-06 21:10:00,27.7,0.9,28.64,West,267,5.0,8.0,31,0.00,CLR,,0.00,WeatherDisplay:10.37,2013-01-07 02:10:00,
2013-01-06 21:15:00,27.7,0.9,28.64,West,270,6.0,10.0,31,0.00,CLR,,0.00,WeatherDisplay:10.37,2013-01-07 02:15:00,
2013-01-06 21:20:00,27.8,1.0,28.64,West,270,6.0,9.0,31,0.00,CLR,,0.00,WeatherDisplay:10.37,2013-01-07 02:20:00,
2013-01-06 21:30:00,27.9,1.1,28.64,WNW,287,5.0,8.0,31,0.00,CLR,,0.00,WeatherDisplay:10.37,2013-01-07 02:30:00,
2013-01-06 21:40:00,28.0,1.2,28.64,West,279,5.0,8.0,31,0.00,CLR,,0.00,WeatherDisplay:10.37,2013-01-07 02:40:00,
2013-01-06 21:45:00,28.0,1.2,28.64,West,280,5.0,6.0,31,0.00,CLR,,0.00,WeatherDisplay:10.37,2013-01-07 02:45:00,
2013-01-06 21:50:00,28.2,1.4,28.64,WNW,290,5.0,6.0,31,0.00,CLR,,0.00,WeatherDisplay:10.37,2013-01-07 02:50:00,
2013-01-06 21:55:00,28.2,1.4,28.64,WNW,298,3.0,8.0,31,0.00,CLR,,0.00,WeatherDisplay:10.37,2013-01-07 02:55:00,
2013-01-06 22:00:00,28.4,1.6,28.64,NW,306,5.0,6.0,31,0.00,CLR,,0.00,WeatherDisplay:10.37,2013-01-07 03:00:00,
2013-01-06 22:05:00,28.6,1.7,28.64,NW,304,3.0,8.0,31,0.00,CLR,,0.00,WeatherDisplay:10.37,2013-01-07 03:05:00,
2013-01-06 22:10:00,28.6,1.7,28.64,WNW,297,5.0,7.0,31,0.00,CLR,,0.00,WeatherDisplay:10.37,2013-01-07 03:10:00,
2013-01-06 22:15:00,28.8,1.2,28.64,WNW,299,5.0,8.0,30,0.00,CLR,,0.00,WeatherDisplay:10.37,2013-01-07 03:15:00,
2013-01-06 22:25:00,29.1,0.0,28.64,WNW,302,3.0,6.0,28,0.00,CLR,,0.00,WeatherDisplay:10.37,2013-01-07 03:25:00,
2013-01-06 22:35:00,28.9,1.3,28.64,WNW,297,3.0,6.0,30,0.00,CLR,,0.00,WeatherDisplay:10.37,2013-01-07 03:35:00,
2013-01-06 22:40:00,29.0,1.4,28.67,NW,309,5.0,8.0,30,0.00,CLR,,0.00,WeatherDisplay:10.37,2013-01-07 03:40:00,
2013-01-06 22:45:00,29.1,0.0,28.67,NW,310,5.0,8.0,28,0.00,CLR,,0.00,WeatherDisplay:10.37,2013-01-07 03:45:00,
2013-01-06 22:50:00,29.1,0.8,28.67,WNW,302,3.0,8.0,29,0.00,CLR,,0.00,WeatherDisplay:10.37,2013-01-07 03:50:00,
2013-01-06 22:55:00,29.1,0.0,28.67,NW,305,3.0,6.0,28,0.00,CLR,,0.00,WeatherDisplay:10.37,2013-01-07 03:55:00,
2013-01-06 23:00:00,29.1,1.5,28.67,NW,314,3.0,4.0,30,0.00,CLR,,0.00,WeatherDisplay:10.37,2013-01-07 04:00:00,
2013-01-06 23:05:00,29.2,0.1,28.67,NW,319,6.0,10.0,28,0.00,CLR,,0.00,WeatherDisplay:10.37,2013-01-07 04:05:00,
2013-01-06 23:10:00,29.3,0.1,28.67,NW,311,3.0,8.0,28,0.00,CLR,,0.00,WeatherDisplay:10.37,2013-01-07 04:10:00,
2013-01-06 23:15:00,29.2,0.0,28.67,NW,309,3.0,8.0,28,0.00,CLR,,0.00,WeatherDisplay:10.37,2013-01-07 04:15:00,
2013-01-06 23:20:00,29.3,0.2,28.67,NW,315,5.0,6.0,28,0.00,CLR,,0.00,WeatherDisplay:10.37,2013-01-07 04:20:00,
2013-01-06 23:25:00,29.1,0.0,28.67,NW,316,5.0,8.0,28,0.00,CLR,,0.00,WeatherDisplay:10.37,2013-01-07 04:25:00,
2013-01-06 23:30:00,29.3,0.2,28.67,NW,309,6.0,8.0,28,0.00,CLR,,0.00,WeatherDisplay:10.37,2013-01-07 04:30:00,
2013-01-06 23:35:00,29.3,0.2,28.67,NW,309,6.0,8.0,28,0.00,CLR,,0.00,WeatherDisplay:10.37,2013-01-07 04:35:00,
2013-01-06 23:40:00,29.1,0.0,28.67,NW,312,3.0,6.0,28,0.00,CLR,,0.00,WeatherDisplay:10.37,2013-01-07 04:40:00,
2013-01-06 23:45:00,29.1,0.0,28.67,NW,310,3.0,6.0,28,0.00,CLR,,0.00,WeatherDisplay:10.37,2013-01-07 04:45:00,
2013-01-06 23:50:00,29.1,0.0,28.67,WNW,299,5.0,8.0,28,0.00,CLR,,0.00,WeatherDisplay:10.37,2013-01-07 04:50:00,
2013-01-06 23:55:00,29.1,0.0,28.67,WNW,292,3.0,6.0,28,0.00,CLR,,0.00,WeatherDisplay:10.37,2013-01-07 04:55:00,